ACA101 CYHZ-CYYZ

Flight info

Callsign ACA101
Flight time 2h 15m
Altitude 38000
Route DCT KELNO Q806 TUKIR RAGID6
Aircraft B38M/M-ICAO/S

Departure

Time 2026-05-06 14:57
Airport Halifax / Stanfield International Airport (CYHZ)

Arrival

Time 2026-05-06 17:12
Airport Toronto Pearson International Airport (CYYZ)
Time Latitude Longitude Altitude Speed Heading
2026-05-06 14:33 44.88679 -63.51378 455 ft 0 kts 258°
2026-05-06 14:45 44.88679 -63.51377 458 ft 0 kts 264°
2026-05-06 14:46 44.88680 -63.51370 458 ft 3 kts 269°
2026-05-06 14:46 44.88680 -63.51344 456 ft 3 kts 269°
2026-05-06 14:46 44.88680 -63.51317 455 ft 3 kts 269°
2026-05-06 14:46 44.88678 -63.51292 455 ft 3 kts 314°
2026-05-06 14:47 44.88668 -63.51282 456 ft 0 kts 351°
2026-05-06 14:51 44.88677 -63.51283 456 ft 3 kts 353°
2026-05-06 14:51 44.88710 -63.51281 458 ft 6 kts
2026-05-06 14:51 44.88746 -63.51282 458 ft 1 kts 350°
2026-05-06 14:52 44.88756 -63.51279 458 ft 1 kts 28°
2026-05-06 14:52 44.88758 -63.51268 458 ft 1 kts 79°
2026-05-06 14:52 44.88751 -63.51258 458 ft 1 kts 148°
2026-05-06 14:52 44.88727 -63.51248 458 ft 6 kts 157°
2026-05-06 14:53 44.88695 -63.51191 458 ft 8 kts 99°
2026-05-06 14:53 44.88706 -63.51085 458 ft 14 kts 79°
2026-05-06 14:53 44.88722 -63.50961 458 ft 14 kts 74°
2026-05-06 14:53 44.88781 -63.50870 457 ft 14 kts 34°
2026-05-06 14:54 44.88868 -63.50781 457 ft 17 kts 36°
2026-05-06 14:54 44.88962 -63.50693 457 ft 15 kts 33°
2026-05-06 14:54 44.88999 -63.50626 455 ft 7 kts 76°
2026-05-06 14:54 44.88993 -63.50566 456 ft 8 kts 113°
2026-05-06 14:55 44.88959 -63.50492 457 ft 10 kts 129°
2026-05-06 14:55 44.88917 -63.50438 457 ft 8 kts 160°
2026-05-06 14:55 44.88867 -63.50459 458 ft 8 kts 215°
2026-05-06 14:55 44.88818 -63.50507 459 ft 12 kts 214°
2026-05-06 14:56 44.88703 -63.50619 459 ft 30 kts 214°
2026-05-06 14:56 44.88407 -63.50907 459 ft 83 kts 213°
2026-05-06 14:56 44.87771 -63.51561 462 ft 141 kts 218°
2026-05-06 14:56 44.86948 -63.52447 999 ft 151 kts 215°
2026-05-06 14:57 44.86132 -63.53284 1791 ft 145 kts 218°
2026-05-06 14:57 44.85329 -63.54134 2466 ft 135 kts 218°
2026-05-06 14:57 44.84618 -63.54892 2996 ft 126 kts 218°
2026-05-06 14:57 44.83902 -63.55652 3275 ft 133 kts 218°
2026-05-06 14:58 44.83128 -63.56477 3445 ft 146 kts 218°
2026-05-06 14:58 44.82319 -63.57436 3547 ft 159 kts 231°
2026-05-06 14:58 44.81773 -63.58872 3613 ft 174 kts 240°
2026-05-06 14:58 44.81239 -63.60470 3626 ft 190 kts 241°
2026-05-06 14:59 44.80628 -63.62287 3819 ft 217 kts 241°
2026-05-06 14:59 44.79972 -63.64239 4419 ft 227 kts 242°
2026-05-06 14:59 44.79470 -63.66387 5138 ft 238 kts 257°
2026-05-06 14:59 44.79504 -63.68764 5892 ft 251 kts 274°
2026-05-06 15:00 44.80157 -63.71105 6659 ft 267 kts 294°
2026-05-06 15:00 44.81390 -63.73143 7549 ft 277 kts 305°
2026-05-06 15:00 44.82728 -63.75108 8384 ft 275 kts 297°
2026-05-06 15:00 44.83411 -63.77476 9129 ft 257 kts 273°
2026-05-06 15:01 44.83693 -63.79959 9871 ft 258 kts 272°
2026-05-06 15:01 44.84059 -63.82468 10478 ft 266 kts 277°
2026-05-06 15:01 44.84585 -63.85039 10871 ft 281 kts 280°
2026-05-06 15:01 44.85168 -63.87698 11204 ft 294 kts 280°
2026-05-06 15:02 44.85753 -63.90536 11718 ft 301 kts 279°
2026-05-06 15:02 44.86315 -63.93367 12291 ft 306 kts 279°
2026-05-06 15:02 44.86898 -63.96275 12912 ft 310 kts 280°
2026-05-06 15:02 44.87494 -63.99211 13558 ft 314 kts 281°
2026-05-06 15:03 44.88097 -64.02189 14180 ft 317 kts 281°
2026-05-06 15:03 44.88702 -64.05206 14719 ft 321 kts 280°
2026-05-06 15:03 44.89314 -64.08256 15277 ft 325 kts 281°
2026-05-06 15:03 44.89933 -64.11343 15816 ft 329 kts 281°
2026-05-06 15:04 44.90558 -64.14461 16358 ft 332 kts 281°
2026-05-06 15:04 44.91190 -64.17623 16871 ft 336 kts 281°
2026-05-06 15:04 44.91827 -64.20815 17419 ft 340 kts 281°
2026-05-06 15:04 44.92470 -64.24044 17948 ft 343 kts 281°
2026-05-06 15:05 44.93120 -64.27308 18447 ft 347 kts 281°
2026-05-06 15:05 44.93766 -64.30559 18883 ft 350 kts 281°
2026-05-06 15:05 44.94424 -64.33878 19345 ft 353 kts 281°
2026-05-06 15:05 44.95086 -64.37223 19841 ft 355 kts 281°
2026-05-06 15:06 44.95752 -64.40591 20332 ft 358 kts 281°
2026-05-06 15:06 44.96421 -64.43983 20792 ft 360 kts 281°
2026-05-06 15:06 44.97093 -64.47396 21268 ft 362 kts 281°
2026-05-06 15:06 44.97768 -64.50829 21725 ft 364 kts 281°
2026-05-06 15:07 44.98447 -64.54290 22194 ft 366 kts 281°
2026-05-06 15:07 44.99129 -64.57774 22652 ft 368 kts 281°
2026-05-06 15:07 44.99813 -64.61268 23104 ft 370 kts 281°
2026-05-06 15:07 45.00499 -64.64786 23549 ft 373 kts 281°
2026-05-06 15:08 45.00957 -64.67133 23818 ft 374 kts 281°
2026-05-06 15:08 45.01648 -64.70688 24232 ft 377 kts 281°
2026-05-06 15:08 45.02344 -64.74272 24652 ft 379 kts 281°
2026-05-06 15:08 45.03042 -64.77872 25052 ft 381 kts 282°
2026-05-06 15:09 45.03743 -64.81491 25414 ft 382 kts 282°
2026-05-06 15:09 45.04446 -64.85134 25772 ft 384 kts 282°
2026-05-06 15:09 45.05149 -64.88782 26133 ft 386 kts 282°
2026-05-06 15:09 45.05855 -64.92448 26510 ft 387 kts 282°
2026-05-06 15:10 45.06562 -64.96131 26896 ft 389 kts 282°
2026-05-06 15:10 45.07273 -64.99838 27290 ft 391 kts 282°
2026-05-06 15:10 45.07984 -65.03558 27648 ft 392 kts 282°
2026-05-06 15:10 45.08699 -65.07302 27978 ft 394 kts 282°
2026-05-06 15:11 45.09414 -65.11050 28342 ft 395 kts 281°
2026-05-06 15:11 45.10129 -65.14812 28689 ft 396 kts 281°
2026-05-06 15:11 45.10835 -65.18531 29007 ft 397 kts 281°
2026-05-06 15:11 45.11551 -65.22314 29330 ft 398 kts 281°
2026-05-06 15:12 45.12269 -65.26109 29649 ft 400 kts 281°
2026-05-06 15:12 45.12988 -65.29923 29963 ft 401 kts 282°
2026-05-06 15:12 45.13707 -65.33740 30238 ft 402 kts 282°
2026-05-06 15:12 45.14428 -65.37576 30496 ft 403 kts 282°
2026-05-06 15:13 45.15149 -65.41421 30745 ft 405 kts 282°
2026-05-06 15:13 45.15873 -65.45294 30997 ft 406 kts 282°
2026-05-06 15:13 45.16597 -65.49167 31245 ft 407 kts 282°
2026-05-06 15:13 45.17320 -65.53049 31489 ft 408 kts 282°
2026-05-06 15:14 45.18046 -65.56953 31732 ft 409 kts 282°
2026-05-06 15:14 45.18772 -65.60865 31969 ft 411 kts 282°
2026-05-06 15:14 45.19499 -65.64790 32215 ft 412 kts 282°
2026-05-06 15:14 45.20217 -65.68676 32432 ft 413 kts 282°
2026-05-06 15:15 45.20946 -65.72629 32662 ft 414 kts 282°
2026-05-06 15:15 45.21675 -65.76588 32888 ft 415 kts 282°
2026-05-06 15:15 45.22403 -65.80552 33222 ft 414 kts 282°
2026-05-06 15:15 45.23127 -65.84499 33554 ft 413 kts 282°
2026-05-06 15:16 45.23845 -65.88428 33875 ft 411 kts 282°
2026-05-06 15:16 45.24562 -65.92360 34183 ft 410 kts 282°
2026-05-06 15:16 45.25275 -65.96274 34444 ft 409 kts 282°
2026-05-06 15:16 45.25985 -66.00186 34716 ft 409 kts 282°
2026-05-06 15:17 45.26684 -66.04037 34969 ft 408 kts 282°
2026-05-06 15:17 45.27391 -66.07947 35232 ft 408 kts 282°
2026-05-06 15:17 45.28095 -66.11849 35491 ft 407 kts 282°
2026-05-06 15:17 45.28798 -66.15747 35738 ft 407 kts 282°
2026-05-06 15:18 45.29499 -66.19648 35996 ft 407 kts 281°
2026-05-06 15:18 45.30197 -66.23542 36249 ft 406 kts 281°
2026-05-06 15:18 45.30893 -66.27427 36477 ft 406 kts 281°
2026-05-06 15:18 45.31580 -66.31275 36698 ft 406 kts 281°
2026-05-06 15:19 45.32273 -66.35166 36907 ft 406 kts 281°
2026-05-06 15:19 45.32966 -66.39057 37119 ft 406 kts 281°
2026-05-06 15:19 45.33657 -66.42951 37329 ft 406 kts 281°
2026-05-06 15:19 45.34347 -66.46848 37522 ft 407 kts 281°
2026-05-06 15:20 45.35036 -66.50750 37693 ft 407 kts 281°
2026-05-06 15:20 45.35725 -66.54660 37873 ft 407 kts 281°
2026-05-06 15:20 45.36412 -66.58555 37844 ft 403 kts 281°
2026-05-06 15:21 45.37733 -66.66253 37834 ft 398 kts 277°
2026-05-06 15:21 45.38650 -66.74007 37834 ft 397 kts 277°
2026-05-06 15:22 45.39577 -66.81763 37830 ft 397 kts 277°
2026-05-06 15:22 45.40486 -66.89516 37836 ft 398 kts 277°
2026-05-06 15:23 45.41394 -66.97258 37823 ft 394 kts 277°
2026-05-06 15:23 45.42279 -67.04880 37822 ft 393 kts 277°
2026-05-06 15:24 45.43168 -67.12561 37812 ft 393 kts 277°
2026-05-06 15:24 45.44050 -67.20241 37812 ft 393 kts 277°
2026-05-06 15:25 45.44927 -67.27918 37809 ft 393 kts 277°
2026-05-06 15:25 45.45797 -67.35582 37811 ft 390 kts 276°
2026-05-06 15:26 45.46652 -67.43156 37809 ft 389 kts 276°
2026-05-06 15:26 45.47507 -67.50790 37808 ft 389 kts 276°
2026-05-06 15:27 45.48368 -67.58398 37798 ft 389 kts 276°
2026-05-06 15:27 45.49225 -67.66006 37797 ft 389 kts 277°
2026-05-06 15:28 45.50099 -67.73606 37793 ft 387 kts 276°
2026-05-06 15:28 45.50953 -67.81179 37799 ft 387 kts 276°
2026-05-06 15:28 45.51374 -67.84913 37900 ft 387 kts 276°
2026-05-06 15:29 45.51806 -67.88750 37888 ft 386 kts 276°
2026-05-06 15:29 45.52648 -67.96274 37901 ft 387 kts 276°
2026-05-06 15:30 45.53490 -68.03853 37900 ft 387 kts 276°
2026-05-06 15:30 45.54326 -68.11417 37903 ft 384 kts 276°
2026-05-06 15:31 45.55153 -68.18948 37905 ft 384 kts 275°
2026-05-06 15:31 45.55971 -68.26445 37905 ft 384 kts 275°
2026-05-06 15:32 45.57197 -68.37771 37894 ft 386 kts 275°
2026-05-06 15:32 45.58010 -68.45349 37921 ft 385 kts 275°
2026-05-06 15:33 45.58745 -68.52872 37888 ft 379 kts 271°
2026-05-06 15:33 45.59114 -68.60390 37887 ft 379 kts 271°
2026-05-06 15:34 45.59496 -68.67890 37886 ft 379 kts 271°
2026-05-06 15:34 45.59860 -68.75394 37888 ft 379 kts 271°
2026-05-06 15:35 45.60224 -68.82848 37889 ft 379 kts 271°
2026-05-06 15:35 45.60583 -68.90347 37888 ft 377 kts 271°
2026-05-06 15:36 45.60937 -68.97856 37886 ft 378 kts 271°
2026-05-06 15:36 45.61286 -69.05363 37887 ft 379 kts 271°
2026-05-06 15:37 45.61631 -69.12875 37884 ft 379 kts 271°
2026-05-06 15:37 45.61970 -69.20376 37880 ft 378 kts 271°
2026-05-06 15:38 45.62303 -69.27836 37868 ft 378 kts 270°
2026-05-06 15:38 45.62633 -69.35344 37871 ft 375 kts 270°
2026-05-06 15:39 45.62952 -69.42734 37869 ft 375 kts 270°
2026-05-06 15:39 45.63269 -69.50160 37867 ft 375 kts 270°
2026-05-06 15:40 45.63580 -69.57592 37871 ft 374 kts 270°
2026-05-06 15:40 45.63888 -69.65026 37870 ft 374 kts 270°
2026-05-06 15:41 45.64190 -69.72459 37869 ft 375 kts 270°
2026-05-06 15:41 45.64487 -69.79900 37869 ft 375 kts 270°
2026-05-06 15:42 45.64778 -69.87294 37869 ft 375 kts 270°
2026-05-06 15:42 45.65066 -69.94731 37867 ft 374 kts 270°
2026-05-06 15:43 45.65349 -70.02163 37868 ft 374 kts 270°
2026-05-06 15:43 45.65626 -70.09582 37875 ft 372 kts 269°
2026-05-06 15:44 45.65897 -70.16951 37868 ft 371 kts 269°
2026-05-06 15:44 45.66163 -70.24322 37877 ft 371 kts 269°
2026-05-06 15:45 45.66424 -70.31697 37871 ft 370 kts 269°
2026-05-06 15:45 45.66678 -70.38993 37880 ft 370 kts 269°
2026-05-06 15:46 45.66929 -70.46340 37878 ft 370 kts 269°
2026-05-06 15:46 45.67175 -70.53684 37882 ft 369 kts 269°
2026-05-06 15:47 45.67416 -70.61011 37885 ft 369 kts 269°
2026-05-06 15:47 45.67652 -70.68348 37879 ft 369 kts 269°
2026-05-06 15:48 45.67884 -70.75688 37890 ft 369 kts 269°
2026-05-06 15:48 45.67862 -70.82996 37901 ft 366 kts 262°
2026-05-06 15:49 45.67402 -70.90196 37887 ft 366 kts 262°
2026-05-06 15:49 45.66942 -70.97441 37894 ft 366 kts 262°
2026-05-06 15:50 45.66471 -71.04681 37897 ft 366 kts 262°
2026-05-06 15:50 45.65999 -71.11922 37900 ft 366 kts 261°
2026-05-06 15:51 45.65521 -71.19171 37889 ft 365 kts 261°
2026-05-06 15:51 45.65039 -71.26412 37893 ft 366 kts 261°
2026-05-06 15:52 45.64555 -71.33603 37903 ft 366 kts 261°
2026-05-06 15:52 45.64062 -71.40856 37894 ft 365 kts 261°
2026-05-06 15:53 45.63567 -71.48090 37888 ft 366 kts 261°
2026-05-06 15:53 45.63067 -71.55313 37885 ft 366 kts 261°
2026-05-06 15:54 45.62562 -71.62543 37893 ft 366 kts 261°
2026-05-06 15:54 45.62137 -71.68573 37889 ft 367 kts 261°
2026-05-06 15:55 45.61623 -71.75822 37890 ft 367 kts 260°
2026-05-06 15:55 45.61017 -71.84275 37898 ft 368 kts 260°
2026-05-06 15:56 45.60490 -71.91549 37902 ft 368 kts 260°
2026-05-06 15:56 45.60045 -71.97645 37906 ft 368 kts 260°
2026-05-06 15:57 45.59508 -72.04925 37910 ft 370 kts 260°
2026-05-06 15:57 45.58964 -72.12211 37902 ft 371 kts 260°
2026-05-06 15:58 45.58424 -72.19503 37907 ft 369 kts 259°
2026-05-06 15:58 45.57870 -72.26786 37902 ft 369 kts 260°
2026-05-06 15:59 45.57338 -72.34049 37908 ft 368 kts 262°
2026-05-06 15:59 45.57195 -72.41373 37916 ft 369 kts 263°
2026-05-06 16:00 45.57037 -72.48694 37928 ft 369 kts 263°
2026-05-06 16:00 45.56891 -72.56017 37927 ft 369 kts 263°
2026-05-06 16:01 45.56733 -72.63302 37917 ft 371 kts 263°
2026-05-06 16:01 45.56573 -72.70679 37919 ft 372 kts 263°
2026-05-06 16:02 45.56405 -72.78070 37920 ft 372 kts 263°
2026-05-06 16:02 45.56233 -72.85457 37921 ft 372 kts 263°
2026-05-06 16:03 45.56057 -72.92840 37918 ft 372 kts 263°
2026-05-06 16:03 45.55877 -73.00195 37918 ft 372 kts 263°
2026-05-06 16:04 45.55687 -73.07646 37918 ft 377 kts 263°
2026-05-06 16:04 45.55496 -73.15126 37917 ft 377 kts 263°
2026-05-06 16:05 45.55297 -73.22606 37919 ft 377 kts 263°
2026-05-06 16:05 45.55095 -73.30042 37919 ft 377 kts 262°
2026-05-06 16:06 45.54887 -73.37522 37921 ft 377 kts 262°
2026-05-06 16:06 45.54673 -73.45027 37920 ft 381 kts 262°
2026-05-06 16:07 45.54453 -73.52624 37922 ft 383 kts 262°
2026-05-06 16:07 45.54228 -73.60172 37922 ft 383 kts 262°
2026-05-06 16:08 45.53997 -73.67759 37924 ft 383 kts 262°
2026-05-06 16:08 45.53761 -73.75341 37924 ft 383 kts 262°
2026-05-06 16:09 45.53520 -73.82925 37922 ft 383 kts 262°
2026-05-06 16:09 45.53274 -73.90512 37922 ft 383 kts 262°
2026-05-06 16:10 45.53023 -73.98106 37915 ft 383 kts 262°
2026-05-06 16:10 45.52767 -74.05692 37913 ft 383 kts 262°
2026-05-06 16:11 45.52506 -74.13275 37912 ft 383 kts 262°
2026-05-06 16:11 45.52239 -74.20858 37912 ft 383 kts 262°
2026-05-06 16:12 45.51966 -74.28476 37907 ft 387 kts 262°
2026-05-06 16:12 45.51688 -74.36139 37907 ft 387 kts 262°
2026-05-06 16:13 45.51405 -74.43761 37909 ft 387 kts 262°
2026-05-06 16:13 45.50622 -74.51289 37892 ft 382 kts 255°
2026-05-06 16:14 45.49595 -74.58733 37901 ft 382 kts 255°
2026-05-06 16:14 45.48555 -74.66169 37902 ft 382 kts 255°
2026-05-06 16:15 45.47502 -74.73663 37900 ft 387 kts 255°
2026-05-06 16:15 45.46443 -74.81181 37903 ft 387 kts 255°
2026-05-06 16:16 45.45376 -74.88700 37899 ft 387 kts 255°
2026-05-06 16:16 45.44313 -74.96169 37897 ft 387 kts 255°
2026-05-06 16:17 45.43237 -75.03682 37898 ft 387 kts 255°
2026-05-06 16:17 45.42151 -75.11191 37908 ft 388 kts 255°
2026-05-06 16:18 45.41049 -75.18762 37890 ft 391 kts 255°
2026-05-06 16:18 45.39942 -75.26344 37873 ft 391 kts 255°
2026-05-06 16:19 45.38828 -75.33925 37869 ft 391 kts 255°
2026-05-06 16:19 45.37708 -75.41510 37870 ft 392 kts 255°
2026-05-06 16:20 45.36585 -75.49085 37875 ft 392 kts 255°
2026-05-06 16:20 45.35461 -75.56624 37882 ft 394 kts 255°
2026-05-06 16:21 45.34321 -75.64240 37886 ft 394 kts 255°
2026-05-06 16:21 45.33175 -75.71854 37885 ft 394 kts 255°
2026-05-06 16:22 45.32023 -75.79474 37886 ft 394 kts 255°
2026-05-06 16:22 45.30866 -75.87084 37887 ft 394 kts 255°
2026-05-06 16:23 45.29704 -75.94699 37854 ft 394 kts 255°
2026-05-06 16:23 45.28544 -76.02257 37882 ft 394 kts 255°
2026-05-06 16:24 45.27372 -76.09867 37881 ft 394 kts 255°
2026-05-06 16:24 45.26191 -76.17470 37877 ft 394 kts 254°
2026-05-06 16:25 45.24207 -76.24669 37887 ft 392 kts 240°
2026-05-06 16:25 45.20956 -76.30894 37893 ft 394 kts 231°
2026-05-06 16:26 45.17384 -76.36788 37890 ft 394 kts 231°
2026-05-06 16:26 45.13810 -76.42663 37875 ft 392 kts 231°
2026-05-06 16:27 45.10249 -76.48507 37881 ft 393 kts 231°
2026-05-06 16:27 45.06675 -76.54359 37877 ft 393 kts 231°
2026-05-06 16:28 45.03094 -76.60212 37883 ft 393 kts 231°
2026-05-06 16:28 44.99509 -76.66059 37872 ft 393 kts 231°
2026-05-06 16:29 44.95950 -76.71850 37887 ft 392 kts 231°
2026-05-06 16:29 44.92373 -76.77659 37889 ft 392 kts 231°
2026-05-06 16:30 44.89373 -76.82522 37886 ft 392 kts 231°
2026-05-06 16:30 44.85208 -76.89259 37889 ft 392 kts 231°
2026-05-06 16:31 44.81647 -76.95077 37888 ft 390 kts 235°
2026-05-06 16:31 44.78819 -77.01553 37880 ft 390 kts 241°
2026-05-06 16:32 44.76118 -77.08215 37887 ft 391 kts 241°
2026-05-06 16:32 44.73429 -77.14865 37888 ft 391 kts 241°
2026-05-06 16:33 44.70747 -77.21472 37883 ft 391 kts 241°
2026-05-06 16:34 44.66693 -77.31434 37864 ft 391 kts 241°
2026-05-06 16:34 44.63995 -77.38041 37862 ft 390 kts 241°
2026-05-06 16:35 44.61293 -77.44645 37869 ft 390 kts 241°
2026-05-06 16:35 44.58581 -77.51258 37884 ft 392 kts 241°
2026-05-06 16:36 44.55877 -77.57834 37881 ft 392 kts 241°
2026-05-06 16:36 44.53150 -77.64452 37889 ft 392 kts 241°
2026-05-06 16:37 44.50423 -77.71053 37877 ft 390 kts 241°
2026-05-06 16:37 44.47704 -77.77612 37869 ft 389 kts 241°
2026-05-06 16:38 44.45005 -77.84108 37373 ft 382 kts 241°
2026-05-06 16:38 44.43670 -77.87319 36793 ft 381 kts 241°
2026-05-06 16:38 44.42333 -77.90527 36236 ft 379 kts 241°
2026-05-06 16:38 44.41020 -77.93676 35640 ft 379 kts 240°
2026-05-06 16:39 44.39714 -77.96803 35061 ft 367 kts 241°
2026-05-06 16:39 44.38420 -77.99900 34473 ft 367 kts 240°
2026-05-06 16:39 44.37131 -78.02981 33889 ft 367 kts 240°
2026-05-06 16:39 44.35845 -78.06051 33279 ft 364 kts 240°
2026-05-06 16:40 44.34569 -78.09090 32711 ft 361 kts 240°
2026-05-06 16:40 44.33300 -78.12108 32140 ft 358 kts 240°
2026-05-06 16:40 44.32042 -78.15098 31573 ft 356 kts 240°
2026-05-06 16:40 44.31213 -78.17067 31203 ft 354 kts 240°
2026-05-06 16:41 44.29967 -78.20022 30646 ft 352 kts 240°
2026-05-06 16:41 44.28730 -78.22955 30096 ft 349 kts 240°
2026-05-06 16:41 44.27500 -78.25867 29519 ft 346 kts 240°
2026-05-06 16:41 44.26284 -78.28744 28976 ft 342 kts 240°
2026-05-06 16:42 44.25081 -78.31586 28443 ft 339 kts 240°
2026-05-06 16:42 44.23888 -78.34402 27915 ft 335 kts 240°
2026-05-06 16:42 44.22704 -78.37194 27386 ft 333 kts 241°
2026-05-06 16:42 44.21530 -78.39961 26870 ft 330 kts 241°
2026-05-06 16:43 44.20364 -78.42705 26355 ft 328 kts 241°
2026-05-06 16:43 44.19221 -78.45393 25851 ft 326 kts 241°
2026-05-06 16:43 44.18065 -78.48109 25341 ft 324 kts 241°
2026-05-06 16:43 44.16915 -78.50807 24837 ft 323 kts 242°
2026-05-06 16:44 44.15767 -78.53501 24330 ft 322 kts 242°
2026-05-06 16:44 44.14621 -78.56186 23832 ft 322 kts 242°
2026-05-06 16:44 44.13475 -78.58868 23290 ft 322 kts 242°
2026-05-06 16:44 44.12334 -78.61535 22789 ft 320 kts 242°
2026-05-06 16:45 44.11202 -78.64181 22297 ft 317 kts 242°
2026-05-06 16:45 44.10075 -78.66811 21796 ft 315 kts 241°
2026-05-06 16:45 44.08955 -78.69424 21343 ft 313 kts 241°
2026-05-06 16:45 44.07840 -78.72025 20835 ft 312 kts 241°
2026-05-06 16:46 44.06727 -78.74611 20354 ft 311 kts 240°
2026-05-06 16:46 44.05621 -78.77182 19881 ft 309 kts 240°
2026-05-06 16:46 44.04522 -78.79737 19405 ft 307 kts 240°
2026-05-06 16:46 44.03392 -78.82255 18942 ft 307 kts 239°
2026-05-06 16:47 44.02250 -78.84751 18473 ft 306 kts 239°
2026-05-06 16:47 44.01129 -78.87217 17981 ft 305 kts 239°
2026-05-06 16:47 43.99996 -78.89699 17513 ft 303 kts 239°
2026-05-06 16:47 43.98869 -78.92160 17045 ft 300 kts 239°
2026-05-06 16:48 43.97748 -78.94605 16589 ft 298 kts 238°
2026-05-06 16:48 43.96641 -78.97023 16130 ft 296 kts 238°
2026-05-06 16:48 43.95539 -78.99428 15687 ft 294 kts 238°
2026-05-06 16:48 43.94444 -79.01812 15244 ft 292 kts 238°
2026-05-06 16:49 43.93358 -79.04176 14936 ft 287 kts 238°
2026-05-06 16:49 43.92297 -79.06484 14609 ft 282 kts 238°
2026-05-06 16:49 43.91247 -79.08766 14285 ft 279 kts 238°
2026-05-06 16:49 43.90211 -79.11016 13994 ft 275 kts 238°
2026-05-06 16:50 43.89186 -79.13238 13700 ft 272 kts 238°
2026-05-06 16:50 43.88166 -79.15449 13400 ft 271 kts 238°
2026-05-06 16:50 43.87154 -79.17642 13108 ft 270 kts 238°
2026-05-06 16:50 43.86143 -79.19829 12847 ft 269 kts 238°
2026-05-06 16:51 43.85138 -79.22004 12569 ft 268 kts 238°
2026-05-06 16:51 43.84134 -79.24174 12287 ft 267 kts 238°
2026-05-06 16:51 43.83145 -79.26309 12017 ft 266 kts 238°
2026-05-06 16:51 43.82146 -79.28465 11751 ft 266 kts 238°
2026-05-06 16:52 43.81149 -79.30616 11480 ft 265 kts 238°
2026-05-06 16:52 43.80153 -79.32762 11207 ft 264 kts 238°
2026-05-06 16:52 43.79162 -79.34902 10932 ft 264 kts 239°
2026-05-06 16:52 43.78496 -79.37252 10679 ft 262 kts 257°
2026-05-06 16:53 43.78232 -79.39735 10402 ft 259 kts 260°
2026-05-06 16:53 43.77996 -79.42193 10145 ft 256 kts 260°
2026-05-06 16:53 43.77753 -79.44616 9882 ft 253 kts 260°
2026-05-06 16:53 43.77508 -79.47016 9596 ft 250 kts 260°
2026-05-06 16:54 43.77266 -79.49391 9332 ft 248 kts 260°
2026-05-06 16:54 43.77026 -79.51749 9077 ft 247 kts 260°
2026-05-06 16:54 43.76786 -79.54104 8821 ft 247 kts 260°
2026-05-06 16:54 43.76550 -79.56418 8576 ft 246 kts 260°
2026-05-06 16:55 43.76309 -79.58762 8327 ft 246 kts 261°
2026-05-06 16:55 43.76070 -79.61100 8073 ft 245 kts 261°
2026-05-06 16:55 43.75830 -79.63432 7908 ft 243 kts 261°
2026-05-06 16:55 43.75590 -79.65756 7892 ft 244 kts 260°
2026-05-06 16:56 43.75350 -79.68079 7895 ft 244 kts 261°
2026-05-06 16:56 43.75109 -79.70405 7886 ft 244 kts 259°
2026-05-06 16:56 43.74555 -79.72586 7905 ft 242 kts 238°
2026-05-06 16:56 43.73461 -79.74366 7921 ft 244 kts 228°
2026-05-06 16:57 43.72277 -79.76054 7930 ft 244 kts 227°
2026-05-06 16:57 43.71098 -79.77741 7937 ft 244 kts 228°
2026-05-06 16:57 43.69927 -79.79438 7932 ft 244 kts 228°
2026-05-06 16:57 43.68756 -79.81139 7938 ft 245 kts 228°
2026-05-06 16:58 43.67571 -79.82852 7939 ft 246 kts 228°
2026-05-06 16:58 43.66387 -79.84563 7943 ft 247 kts 227°
2026-05-06 16:58 43.65202 -79.86274 7939 ft 246 kts 227°
2026-05-06 16:58 43.64014 -79.87989 7941 ft 247 kts 227°
2026-05-06 16:59 43.62831 -79.89696 7944 ft 246 kts 227°
2026-05-06 16:59 43.61660 -79.91383 7940 ft 246 kts 227°
2026-05-06 16:59 43.60474 -79.93094 7943 ft 247 kts 227°
2026-05-06 16:59 43.59287 -79.94802 7940 ft 246 kts 227°
2026-05-06 17:00 43.58098 -79.96513 7920 ft 246 kts 228°
2026-05-06 17:00 43.56908 -79.98226 7762 ft 250 kts 228°
2026-05-06 17:00 43.55671 -80.00005 7153 ft 262 kts 228°
2026-05-06 17:00 43.54386 -80.01852 6540 ft 272 kts 227°
2026-05-06 17:01 43.53052 -80.03766 5901 ft 280 kts 227°
2026-05-06 17:01 43.51680 -80.05733 5244 ft 288 kts 227°
2026-05-06 17:01 43.50304 -80.07731 4992 ft 281 kts 229°
2026-05-06 17:01 43.48838 -80.09374 5008 ft 268 kts 207°
2026-05-06 17:02 43.47119 -80.10061 5004 ft 258 kts 187°
2026-05-06 17:02 43.45371 -80.09881 5001 ft 249 kts 167°
2026-05-06 17:02 43.43822 -80.08917 4994 ft 242 kts 147°
2026-05-06 17:02 43.42635 -80.07349 4988 ft 234 kts 127°
2026-05-06 17:03 43.41902 -80.05400 4987 ft 229 kts 108°
2026-05-06 17:03 43.41657 -80.03235 4998 ft 230 kts 88°
2026-05-06 17:03 43.41923 -80.01100 5025 ft 217 kts 70°
2026-05-06 17:03 43.42569 -79.99362 5000 ft 192 kts 52°
2026-05-06 17:04 43.43451 -79.98056 5000 ft 185 kts 36°
2026-05-06 17:04 43.44465 -79.96985 4992 ft 183 kts 35°
2026-05-06 17:04 43.45466 -79.95912 4993 ft 182 kts 35°
2026-05-06 17:04 43.46446 -79.94864 5067 ft 180 kts 34°
2026-05-06 17:05 43.47449 -79.93798 5092 ft 182 kts 34°
2026-05-06 17:05 43.48447 -79.92733 5097 ft 181 kts 34°
2026-05-06 17:05 43.49460 -79.91655 4914 ft 184 kts 35°
2026-05-06 17:05 43.50462 -79.90585 4641 ft 182 kts 34°
2026-05-06 17:06 43.51459 -79.89509 4332 ft 183 kts 39°
2026-05-06 17:06 43.52365 -79.88275 4020 ft 183 kts 44°
2026-05-06 17:06 43.53233 -79.86994 3702 ft 181 kts 44°
2026-05-06 17:06 43.54080 -79.85761 3381 ft 179 kts 44°
2026-05-06 17:07 43.54942 -79.84509 3054 ft 174 kts 44°
2026-05-06 17:07 43.55743 -79.83344 3007 ft 171 kts 44°
2026-05-06 17:07 43.56585 -79.82125 3010 ft 173 kts 44°
2026-05-06 17:07 43.57412 -79.80924 3012 ft 175 kts 44°
2026-05-06 17:08 43.58211 -79.79763 2990 ft 157 kts 44°
2026-05-06 17:08 43.58965 -79.78664 2996 ft 160 kts 45°
2026-05-06 17:08 43.59739 -79.77539 2825 ft 159 kts 44°
2026-05-06 17:08 43.60494 -79.76455 2614 ft 155 kts 45°
2026-05-06 17:09 43.61238 -79.75374 2416 ft 155 kts 45°
2026-05-06 17:09 43.61972 -79.74307 2203 ft 153 kts 45°
2026-05-06 17:09 43.62706 -79.73245 1989 ft 151 kts 44°
2026-05-06 17:09 43.63434 -79.72190 1760 ft 151 kts 45°
2026-05-06 17:10 43.64155 -79.71140 1553 ft 151 kts 45°
2026-05-06 17:10 43.64874 -79.70099 1344 ft 148 kts 44°
2026-05-06 17:10 43.65543 -79.69130 1110 ft 131 kts 46°
2026-05-06 17:10 43.66148 -79.68249 812 ft 121 kts 44°
2026-05-06 17:11 43.66685 -79.67439 712 ft 113 kts 43°
2026-05-06 17:11 43.67258 -79.66615 782 ft 119 kts 43°
2026-05-06 17:11 43.67798 -79.65870 578 ft 99 kts 42°
2026-05-06 17:11 43.68205 -79.65279 576 ft 67 kts 49°
2026-05-06 17:12 43.68438 -79.64920 579 ft 42 kts 45°
2026-05-06 17:12 43.68600 -79.64683 577 ft 33 kts 38°
2026-05-06 17:12 43.68719 -79.64444 573 ft 32 kts 66°
2026-05-06 17:12 43.68768 -79.64184 575 ft 20 kts 88°
2026-05-06 17:13 43.68782 -79.64068 578 ft 12 kts 77°
2026-05-06 17:13 43.68815 -79.63966 580 ft 11 kts 46°
2026-05-06 17:13 43.68876 -79.63879 576 ft 14 kts 47°
2026-05-06 17:13 43.68947 -79.63777 576 ft 14 kts 45°
2026-05-06 17:14 43.69022 -79.63670 574 ft 18 kts 46°
2026-05-06 17:14 43.69073 -79.63539 572 ft 15 kts 111°
2026-05-06 17:14 43.69009 -79.63442 567 ft 14 kts 135°
2026-05-06 17:14 43.68943 -79.63352 570 ft 13 kts 134°
2026-05-06 17:15 43.68864 -79.63251 569 ft 18 kts 137°
2026-05-06 17:15 43.68765 -79.63123 566 ft 20 kts 136°
2026-05-06 17:15 43.68670 -79.62998 563 ft 18 kts 136°
2026-05-06 17:15 43.68574 -79.62876 566 ft 18 kts 137°
2026-05-06 17:16 43.68481 -79.62752 567 ft 19 kts 129°
2026-05-06 17:16 43.68498 -79.62654 572 ft 8 kts 40°
2026-05-06 17:16 43.68545 -79.62631 570 ft 8 kts 11°
2026-05-06 17:16 43.68576 -79.62618 567 ft 4 kts 35°
2026-05-06 17:17 43.68600 -79.62617 568 ft 4 kts 341°
2026-05-06 17:17 43.68621 -79.62643 565 ft 0 kts 311°
2026-05-06 17:17 43.68625 -79.62649 565 ft 2 kts 313°
2026-05-06 17:17 43.68632 -79.62659 566 ft 0 kts 312°
2026-05-06 17:18 43.68632 -79.62660 566 ft 0 kts 312°